Time,TemperatureF,DewpointF,PressureIn,WindDirection,WindDirectionDegrees,WindSpeedMPH,WindSpeedGustMPH,Humidity,HourlyPrecipIn,Conditions,Clouds,dailyrainin,SoftwareType,DateUTC
2013-05-04 00:00:00,55.0,-99.9,30.28,West,280,16.0,18.0,-999,-99.99,,,-99.99,,2013-05-04 07:00:00,
2013-05-04 00:52:00,55.0,-99.9,30.28,West,280,16.0,18.0,-999,-99.99,,,-99.99,,2013-05-04 07:52:00,
2013-05-04 01:00:00,55.0,-99.9,30.28,West,280,18.0,20.0,-999,-99.99,,,-99.99,,2013-05-04 08:00:00,
2013-05-04 01:52:00,55.0,-99.9,30.28,West,280,18.0,20.0,-999,-99.99,,,-99.99,,2013-05-04 08:52:00,
2013-05-04 02:00:00,54.0,-99.9,30.27,WNW,290,18.0,22.0,-999,-99.99,,,-99.99,,2013-05-04 09:00:00,
2013-05-04 02:53:00,54.0,-99.9,30.27,WNW,290,18.0,22.0,-999,-99.99,,,-99.99,,2013-05-04 09:53:00,
2013-05-04 03:00:00,54.0,-99.9,30.27,West,280,18.0,20.0,-999,-99.99,,,-99.99,,2013-05-04 10:00:00,
2013-05-04 03:53:00,54.0,-99.9,30.27,West,280,18.0,20.0,-999,-99.99,,,-99.99,,2013-05-04 10:53:00,
2013-05-04 04:00:00,53.0,-99.9,30.28,West,280,16.0,18.0,-999,-99.99,,,-99.99,,2013-05-04 11:00:00,
2013-05-04 05:00:00,53.0,-99.9,30.29,West,280,16.0,18.0,-999,-99.99,,,-99.99,,2013-05-04 12:00:00,
2013-05-04 05:52:00,53.0,-99.9,30.29,West,280,16.0,18.0,-999,-99.99,,,-99.99,,2013-05-04 12:52:00,
2013-05-04 06:00:00,52.0,-99.9,30.29,West,280,16.0,18.0,-999,-99.99,,,-99.99,,2013-05-04 13:00:00,
2013-05-04 06:53:00,52.0,-99.9,30.29,West,280,16.0,18.0,-999,-99.99,,,-99.99,,2013-05-04 13:53:00,
2013-05-04 07:00:00,52.0,-99.9,30.29,WNW,290,18.0,20.0,-999,-99.99,,,-99.99,,2013-05-04 14:00:00,
2013-05-04 07:52:00,52.0,-99.9,30.29,WNW,290,18.0,20.0,-999,-99.99,,,-99.99,,2013-05-04 14:52:00,
2013-05-04 08:00:00,52.0,-99.9,30.29,WNW,290,16.0,18.0,-999,-99.99,,,-99.99,,2013-05-04 15:00:00,
2013-05-04 08:53:00,52.0,-99.9,30.29,WNW,290,16.0,18.0,-999,-99.99,,,-99.99,,2013-05-04 15:53:00,
2013-05-04 09:00:00,52.0,-99.9,30.29,WNW,290,16.0,18.0,-999,-99.99,,,-99.99,,2013-05-04 16:00:00,
2013-05-04 09:52:00,52.0,-99.9,30.29,WNW,290,16.0,18.0,-999,-99.99,,,-99.99,,2013-05-04 16:52:00,
2013-05-04 10:00:00,52.0,-99.9,30.28,WNW,290,16.0,18.0,-999,-99.99,,,-99.99,,2013-05-04 17:00:00,
2013-05-04 10:52:00,52.0,-99.9,30.28,WNW,290,16.0,18.0,-999,-99.99,,,-99.99,,2013-05-04 17:52:00,
2013-05-04 11:00:00,52.0,-99.9,30.28,West,280,18.0,20.0,-999,-99.99,,,-99.99,,2013-05-04 18:00:00,
2013-05-04 11:52:00,52.0,-99.9,30.28,West,280,18.0,20.0,-999,-99.99,,,-99.99,,2013-05-04 18:52:00,
2013-05-04 12:00:00,53.0,-99.9,30.26,West,280,16.0,18.0,-999,-99.99,,,-99.99,,2013-05-04 19:00:00,
2013-05-04 12:52:00,53.0,-99.9,30.26,West,280,16.0,18.0,-999,-99.99,,,-99.99,,2013-05-04 19:52:00,
2013-05-04 13:00:00,53.0,-99.9,30.23,West,280,13.0,18.0,-999,-99.99,,,-99.99,,2013-05-04 20:00:00,
2013-05-04 13:52:00,53.0,-99.9,30.23,West,280,13.0,18.0,-999,-99.99,,,-99.99,,2013-05-04 20:52:00,
2013-05-04 14:00:00,54.0,-99.9,30.20,West,280,11.0,13.0,-999,-99.99,,,-99.99,,2013-05-04 21:00:00,
2013-05-04 14:53:00,54.0,-99.9,30.20,West,280,11.0,13.0,-999,-99.99,,,-99.99,,2013-05-04 21:53:00,
2013-05-04 15:00:00,56.0,-99.9,30.17,West,280,11.0,13.0,-999,-99.99,,,-99.99,,2013-05-04 22:00:00,
2013-05-04 15:52:00,56.0,-99.9,30.17,West,280,11.0,13.0,-999,-99.99,,,-99.99,,2013-05-04 22:52:00,
2013-05-04 16:00:00,55.0,-99.9,30.15,West,260,13.0,13.0,-999,-99.99,,,-99.99,,2013-05-04 23:00:00,
2013-05-04 16:52:00,55.0,-99.9,30.15,West,260,13.0,13.0,-999,-99.99,,,-99.99,,2013-05-04 23:52:00,
2013-05-04 17:00:00,56.0,-99.9,30.12,West,280,13.0,13.0,-999,-99.99,,,-99.99,,2013-05-05 00:00:00,
2013-05-04 17:52:00,56.0,-99.9,30.12,West,280,13.0,13.0,-999,-99.99,,,-99.99,,2013-05-05 00:52:00,
2013-05-04 18:00:00,57.0,-99.9,30.08,WNW,290,16.0,18.0,-999,-99.99,,,-99.99,,2013-05-05 01:00:00,
2013-05-04 18:52:00,57.0,-99.9,30.08,WNW,290,16.0,18.0,-999,-99.99,,,-99.99,,2013-05-05 01:52:00,
2013-05-04 19:00:00,58.0,-99.9,30.06,West,280,13.0,16.0,-999,-99.99,,,-99.99,,2013-05-05 02:00:00,
2013-05-04 19:52:00,58.0,-99.9,30.06,West,280,13.0,16.0,-999,-99.99,,,-99.99,,2013-05-05 02:52:00,
2013-05-04 20:00:00,59.0,-99.9,30.06,West,270,11.0,11.0,-999,-99.99,,,-99.99,,2013-05-05 03:00:00,
2013-05-04 20:53:00,59.0,-99.9,30.06,West,270,11.0,11.0,-999,-99.99,,,-99.99,,2013-05-05 03:53:00,
2013-05-04 21:00:00,57.0,-99.9,30.05,West,280,9.0,13.0,-999,-99.99,,,-99.99,,2013-05-05 04:00:00,
2013-05-04 21:53:00,57.0,-99.9,30.05,West,280,9.0,13.0,-999,-99.99,,,-99.99,,2013-05-05 04:53:00,
2013-05-04 22:00:00,57.0,-99.9,30.05,NW,320,9.0,11.0,-999,-99.99,,,-99.99,,2013-05-05 05:00:00,
2013-05-04 22:52:00,57.0,-99.9,30.05,NW,320,9.0,11.0,-999,-99.99,,,-99.99,,2013-05-05 05:52:00,
2013-05-04 23:00:00,59.0,-99.9,30.04,NW,320,9.0,9.0,-999,-99.99,,,-99.99,,2013-05-05 06:00:00,
2013-05-04 23:52:00,59.0,-99.9,30.04,NW,320,9.0,9.0,-999,-99.99,,,-99.99,,2013-05-05 06:52:00,